Regional Weather Roundup
Issued by NWS

Home | Current Version | Previous Version | Graphics & Text | Print | Product List | Glossary On
Versions: 1 2 3 4 5 6 7 8 9 10 11 12 13 14 15 16 17 18 19 20 21 22 23 24 25 26 27 28 29 30 31 32 33 34 35 36 37 38 39 40 41 42 43 44 45 46 47 48 49 50
000
ASUS45 KCYS 200010
RWRWY

WYOMING REGIONAL WEATHER ROUNDUP
NATIONAL WEATHER SERVICE CHEYENNE WY
600 PM MDT TUE SEP 19 2017

NOTE:  "FAIR" INDICATES FEW OR NO CLOUDS BELOW 12,000 FEET
WITH NO SIGNIFICANT WEATHER AND/OR OBSTRUCTIONS TO VISIBILITY.

WYZ001-200100-
YELLOWSTONE NATIONAL PARK

CITY           SKY/WX    TMP DP  RH WIND       PRES   REMARKS
LK YELLOWSTONE   N/A     29  27  92 CALM      29.85R
6HR MIN TEMP:  28; 6HR MAX TEMP:  35; 6HR PCP:  0.33;

W YELLOWSTONE  NOT AVBL

$$
WYZ002>013-054>058-071-098>099-200100-
NORTHERN WYOMING

CITY           SKY/WX    TMP DP  RH WIND       PRES   REMARKS
JACKSON        CLOUDY    41  30  65 S17G24    29.87R
CODY           CLOUDY    47  31  53 NW13      29.78R
GREYBULL       FAIR      56  33  42 NW3       29.72R
6HR MIN TEMP:  51; 6HR MAX TEMP:  57;

WORLAND        LGT RAIN  49  42  77 E6        29.74R
6HR MIN TEMP:  48; 6HR MAX TEMP:  57; 6HR PCP:  0.03;

SHERIDAN       FAIR      51  34  52 W5        29.73R
6HR MIN TEMP:  46; 6HR MAX TEMP:  56; 6HR PCP: TRACE;

BUFFALO        FAIR      46  36  68 NW8       29.76R
6HR MIN TEMP:  41; 6HR MAX TEMP:  48; 6HR PCP:  0.05;

GILLETTE       PTSUNNY   45  41  86 SW5       29.74F
6HR MIN TEMP:  43; 6HR MAX TEMP:  50; 6HR PCP:  0.20;

HULETT         HVY RAIN  45  43  93 SW6       29.76R
NEWCASTLE      FAIR      52  43  71 NW12      29.73R

$$
WYZ014>020-022>026-101>103-200100-
CENTRAL WYOMING

CITY           SKY/WX    TMP DP  RH WIND       PRES   REMARKS
BIG PINEY      FAIR      43  28  55 W18       29.93R
6HR MIN TEMP:  36; 6HR MAX TEMP:  49; 6HR PCP: TRACE;

PINEDALE       FAIR      41  28  60 W14G23    29.93S
DUBOIS         FAIR      37  28  70 NW8G16    29.84R WCI  31
LANDER           N/A    N/A N/A N/A MISG      29.81R
RIVERTON       FAIR      53  22  29 W29G37    29.80R
6HR MIN TEMP:  51; 6HR MAX TEMP:  57;

CASPER         FAIR      49  35  58 SW20G31   29.79R
6HR MIN TEMP:  45; 6HR MAX TEMP:  50; 6HR PCP:  0.04;

DOUGLAS        FAIR      52  28  39 SW22G29   29.78F
6HR MIN TEMP:  50; 6HR MAX TEMP:  63; 6HR PCP: TRACE;


$$
WYZ021-027>030-104>119-200100-
SOUTHERN WYOMING

CITY           SKY/WX    TMP DP  RH WIND       PRES   REMARKS
EVANSTON       FAIR      47  30  51 W16G30    29.97S
6HR MIN TEMP:  37; 6HR MAX TEMP:  48; 6HR PCP: TRACE;

FORT BRIDGER   FAIR      46  35  65 W20G25    30.00R
ROCK SPRINGS   FAIR      44  31  60 W23G30    29.95R
6HR MIN TEMP:  33; 6HR MAX TEMP:  44; 6HR PCP: TRACE;

DIXON          LGT RAIN  35  34  95 E10       30.02S WCI  28
RAWLINS        FAIR      39  33  79 SW21G28   29.91S WCI  29
6HR MIN TEMP:  33; 6HR MAX TEMP:  39; 6HR PCP:  0.31;

SARATOGA       LGT SNOW  32  32 100 S10G16    29.98F WCI  24
LARAMIE        CLOUDY    44  26  49 NW14      29.92R
6HR MIN TEMP:  44; 6HR MAX TEMP:  72;

CHEYENNE       FAIR      51  29  42 NW25G39   29.79S
6HR MIN TEMP:  50; 6HR MAX TEMP:  80;

TORRINGTON     FAIR      57  29  34 NW23G32   29.77R
6HR MIN TEMP:  57; 6HR MAX TEMP:  83;

PINE BLUFFS    FAIR      54  30  40 NW35G46   29.78R

$$



USA.gov is the U.S. government's official web portal to all federal, state and local government web resources and services.